Flight Track Log - Related Links

Times and Time Zones

All times are in EDT time to prevent confusion due to time zone crossing. See the AWI3771 flight status page for this flight to view local times or setup timezone preferences in your user account.

Time Position Orientation Groundspeed Altitude Reporting Facility
EDT Latitude Longitude Course Direction KTS MPH feet Rate Location/Type
Fri 05:59:22 PM 43.6333 -79.6333 117° Southeast 160 184 2,600  Level Toronto Center
Fri 06:00:22 PM 43.5833 -79.6833 216° Southwest 220 253 4,300 2,000 Climbing Toronto Center
Fri 06:01:00 PM 43.4582 -79.3574 121° Southeast  Level Estimated
Fri 06:01:22 PM 43.5333 -79.6333 144° Southeast 270 311 6,600  Level Toronto Center
Fri 06:02:00 PM 43.4634 -79.2221 87° East  Level FlightAware Approximate
Fri 06:02:22 PM 43.5167 -79.5333 103° East 280 322 6,900  Level Toronto Center
Fri 06:03:00 PM 43.3890 -79.1333 125° Southeast  Level Estimated
Fri 06:03:22 PM 43.5167 -79.4333 90° East 290 334 7,900  Level Toronto Center
Fri 06:04:00 PM 43.3146 -79.0447 117° Southeast  Level Estimated
Fri 06:04:22 PM 43.5000 -79.3167 101° East 290 334 11,000  Level Toronto Center
Fri 06:05:22 PM 43.4833 -79.2000 101° East 320 368 12,600 1,800 Climbing Toronto Center
Fri 06:06:22 PM 43.4500 -79.0833 111° Southeast 340 391 14,600 1,950 Climbing Toronto Center
Fri 06:07:22 PM 43.4333 -78.9500 100° East 350 403 16,500 1,600 Climbing Toronto Center
Fri 06:08:22 PM 43.3833 -78.8333 120° Southeast 360 414 17,800 1,350 Climbing Toronto Center
Fri 06:09:22 PM 43.3289 -78.7225 124° Southeast 364 419 19,200 1,500 Climbing Cleveland Center
Fri 06:10:22 PM 43.2686 -78.6017 124° Southeast 377 434 20,800 1,388 Climbing Cleveland Center
Fri 06:11:23 PM 43.2103 -78.4811 124° Southeast 387 445 22,000 1,190 Climbing Cleveland Center
Fri 06:12:23 PM 43.1475 -78.3553 124° Southeast 393 452 23,200 1,160 Climbing Cleveland Center
Fri 06:13:22 PM 43.0867 -78.2322 124° Southeast 393 452 24,300 939 Climbing Cleveland Center
Fri 06:15:22 PM 42.9325 -78.0367 137° Southeast 370 426 26,000 900 Climbing Cleveland Center
Fri 06:16:22 PM 42.8261 -78.0411 182° South 353 406 27,000 893 Climbing Cleveland Center
Fri 06:17:23 PM 42.7181 -78.0483 183° South 370 426 27,800 793 Climbing Cleveland Center
Fri 06:18:23 PM 42.6075 -78.0556 183° South 388 447 28,600 600 Climbing Cleveland Center
Fri 06:19:23 PM 42.4953 -78.0656 184° South 394 453 29,000 200 Climbing Cleveland Center
Fri 06:20:23 PM 42.3786 -78.0703 182° South 407 468 29,000  Level Cleveland Center
Fri 06:21:23 PM 42.2600 -78.0806 184° South 419 482 29,000  Level Cleveland Center
Fri 06:22:22 PM 42.1394 -78.0881 183° South 429 494 29,000  Level Cleveland Center
Fri 06:23:23 PM 42.0228 -78.0956 183° South 429 494 29,000  Level Cleveland Center
Fri 06:24:22 PM 41.9083 -78.1028 183° South 419 482 29,000  Level Cleveland Center
Fri 06:25:22 PM 41.8061 -78.1067 182° South 419 482 29,000 -99 Level Cleveland Center
Fri 06:26:23 PM 41.6936 -78.1139 183° South 419 482 28,800 -900 Descending Cleveland Center
Fri 06:27:22 PM 41.5731 -78.1211 183° South 424 488 27,200 -958 Descending Cleveland Center
Fri 06:28:22 PM 41.4522 -78.1286 183° South 429 494 26,900 -1,024 Descending Cleveland Center
Fri 06:29:25 PM 41.3161 -78.1331 181° South 441 507 25,100 -927 Descending New York Center
Fri 06:30:25 PM 41.2094 -78.1378 182° South 422 486 25,000 -50 Descending New York Center
Fri 06:31:26 PM 41.1039 -78.0906 161° South 411 473 25,000  Level New York Center
Fri 06:32:26 PM 41.0031 -78.0358 158° South 405 466 25,000  Level New York Center
Fri 06:33:27 PM 40.9067 -77.9789 156° South 390 449 25,000  Level New York Center
Fri 06:34:27 PM 40.8358 -77.8725 131° Southeast 375 432 25,000 -513 Level New York Center
Fri 06:35:24 PM 40.7614 -77.7606 131° Southeast 390 449 24,000 -1,017 Descending New York Center
Fri 06:36:25 PM 40.6831 -77.6378 130° Southeast 415 478 23,000 -1,835 Descending New York Center
Fri 06:37:25 PM 40.6081 -77.5264 132° Southeast 421 484 20,300 -2,479 Descending New York Center
Fri 06:38:26 PM 40.5281 -77.4283 137° Southeast 406 467 18,000 -1,140 Descending New York Center
Fri 06:39:26 PM 40.4272 -77.3722 157° South 367 422 18,000  Level New York Center
Fri 06:40:27 PM 40.3422 -77.3233 156° South 367 422 18,000  Level New York Center
Fri 06:41:27 PM 40.2803 -77.2003 123° Southeast 357 411 18,000  Level New York Center
Fri 06:42:25 PM 40.2600 -77.0706 102° East 357 411 18,000  Level New York Center
Fri 06:43:25 PM 40.2344 -76.9242 103° East 402 463 18,000 -1,000 Level New York Center
Fri 06:44:25 PM 40.2072 -76.7667 103° East 412 474 16,000 -1,488 Descending New York Center
Fri 06:45:26 PM 40.1825 -76.6342 104° East 392 451 15,000 -738 Descending New York Center
Fri 06:46:27 PM 40.1594 -76.5100 104° East 369 425 14,500 -1,140 Descending New York Center
Fri 06:47:27 PM 40.1381 -76.3886 103° East 369 425 12,700 -1,881 Descending New York Center
Fri 06:48:25 PM 40.1192 -76.2622 101° East 341 392 10,800 -1,831 Descending New York Center
Fri 06:49:25 PM 40.1094 -76.1528 97° East 316 364 9,100 -1,388 Descending New York Center
Fri 06:50:26 PM 40.1017 -76.0492 96° East 296 341 8,000 -550 Descending New York Center
Fri 06:51:25 PM 40.0978 -75.9511 93° East 296 341 8,000  Level New York Center
Fri 06:52:25 PM 40.0861 -75.8336 97° East 296 341 8,000  Level New York Center
Fri 06:53:26 PM 40.0783 -75.7244 95° East 296 341 8,000  Level New York Center
Fri 06:54:26 PM 40.0744 -75.6183 93° East 296 341 8,000 -51 Level New York Center
Fri 06:55:24 PM 40.0697 -75.5258 94° East 272 313 7,900 -650 Descending New York Center
Fri 06:56:26 PM 40.0633 -75.4278 95° East 267 307 6,700 -877 Descending New York Center
Fri 06:57:34 PM 40.0667 -75.3333 87° East 216 249 6,000 -344 Descending Philadelphia TRACON
Fri 06:58:28 PM 40.0667 -75.2500 90° East 236 272 6,000  Level Philadelphia TRACON
Fri 06:59:34 PM 40.0167 -75.1833 134° Southeast 237 273 6,000  Level Philadelphia TRACON
Fri 07:00:40 PM 39.9833 -75.1333 131° Southeast 212 244 6,000 -450 Level Philadelphia TRACON
Fri 07:01:34 PM 40.0000 -75.0667 72° East 220 253 5,100 -1,316 Descending Philadelphia TRACON
Fri 07:02:34 PM 40.0000 -74.9833 90° East 210 242 3,500 -1,429 Descending Philadelphia TRACON
Fri 07:03:40 PM 39.9500 -75.0000 194° South 190 219 2,100 -714 Descending Philadelphia TRACON
Fri 07:04:40 PM 39.9333 -75.0500 247° West 167 192 2,000 -56 Descending Philadelphia TRACON
Fri 07:05:28 PM 39.9167 -75.0833 237° Southwest 166 191 2,000  Level Philadelphia TRACON

Login

Don't have an account? Register now (free) for customized features, flight alerts, and more!